Year,Month,Day,Hour,Minute,Value (Times are PST for barometer in hPa)
2017,01,18,00,00,989.44
2017,01,18,00,01,989.54
2017,01,18,00,02,989.54
2017,01,18,00,03,989.47
2017,01,18,00,04,989.47
2017,01,18,00,05,989.40
2017,01,18,00,06,989.37
2017,01,18,00,07,989.33
2017,01,18,00,08,989.27
2017,01,18,00,09,989.33
2017,01,18,00,10,989.33
2017,01,18,00,11,989.40
2017,01,18,00,12,989.50
2017,01,18,00,13,989.57
2017,01,18,00,14,989.57
2017,01,18,00,15,989.50
2017,01,18,00,16,989.54
2017,01,18,00,17,989.50
2017,01,18,00,18,989.47
2017,01,18,00,19,989.44
2017,01,18,00,20,989.40
2017,01,18,00,21,989.30
2017,01,18,00,22,989.30
2017,01,18,00,23,989.30
2017,01,18,00,24,989.27
2017,01,18,00,25,989.27
2017,01,18,00,26,989.33
2017,01,18,00,27,989.33
2017,01,18,00,28,989.33
2017,01,18,00,29,989.44
2017,01,18,00,30,989.44
2017,01,18,00,31,989.47
2017,01,18,00,32,989.44
2017,01,18,00,33,989.50
2017,01,18,00,34,989.50
2017,01,18,00,35,989.47
2017,01,18,00,36,989.57
2017,01,18,00,37,989.57
2017,01,18,00,38,989.57
2017,01,18,00,39,989.67
2017,01,18,00,40,989.74
2017,01,18,00,41,989.84
2017,01,18,00,42,989.88
2017,01,18,00,43,989.81
2017,01,18,00,44,989.84
2017,01,18,00,45,989.81
2017,01,18,00,46,989.88
2017,01,18,00,47,989.88
2017,01,18,00,48,989.94
2017,01,18,00,49,989.91
2017,01,18,00,50,989.88
2017,01,18,00,51,989.84
2017,01,18,00,52,989.77
2017,01,18,00,53,989.74
2017,01,18,00,54,989.64
2017,01,18,00,55,989.67
2017,01,18,00,56,989.77
2017,01,18,00,57,989.81
2017,01,18,00,58,989.81
2017,01,18,00,59,989.84
2017,01,18,01,00,989.77
2017,01,18,01,01,989.88
2017,01,18,01,02,989.84
2017,01,18,01,03,989.84
2017,01,18,01,04,989.88
2017,01,18,01,05,989.91
2017,01,18,01,06,989.94
2017,01,18,01,07,989.91
2017,01,18,01,08,989.94
2017,01,18,01,09,990.04
2017,01,18,01,10,990.08
2017,01,18,01,11,990.04
2017,01,18,01,12,990.01
2017,01,18,01,13,990.01
2017,01,18,01,14,989.98
2017,01,18,01,15,990.04
2017,01,18,01,16,990.01
2017,01,18,01,17,990.04
2017,01,18,01,18,989.94
2017,01,18,01,19,989.94
2017,01,18,01,20,989.88
2017,01,18,01,21,989.84
2017,01,18,01,22,989.84
2017,01,18,01,23,989.89
2017,01,18,01,24,990.01
2017,01,18,01,25,990.04
2017,01,18,01,26,990.04
2017,01,18,01,27,990.01
2017,01,18,01,28,989.94
2017,01,18,01,29,989.91
2017,01,18,01,30,989.94
2017,01,18,01,31,989.88
2017,01,18,01,32,989.91
2017,01,18,01,33,989.88
2017,01,18,01,34,989.91
2017,01,18,01,35,989.94
2017,01,18,01,36,989.98
2017,01,18,01,37,989.98
2017,01,18,01,38,989.98
2017,01,18,01,39,989.98
2017,01,18,01,40,989.94
2017,01,18,01,41,989.94
2017,01,18,01,42,989.94
2017,01,18,01,43,989.94
2017,01,18,01,44,990.01
2017,01,18,01,45,989.91
2017,01,18,01,46,989.98
2017,01,18,01,47,990.04
2017,01,18,01,48,990.01
2017,01,18,01,49,990.01
2017,01,18,01,50,990.04
2017,01,18,01,51,990.04
2017,01,18,01,52,990.04
2017,01,18,01,53,989.98
2017,01,18,01,54,989.98
2017,01,18,01,55,990.09
2017,01,18,01,56,990.21
2017,01,18,01,57,990.25
2017,01,18,01,58,990.25
2017,01,18,01,59,990.15
2017,01,18,02,00,990.15
2017,01,18,02,01,990.11
2017,01,18,02,02,990.15
2017,01,18,02,03,990.08
2017,01,18,02,04,990.15
2017,01,18,02,05,990.08
2017,01,18,02,06,990.11
2017,01,18,02,07,990.08
2017,01,18,02,08,990.01
2017,01,18,02,09,990.04
2017,01,18,02,10,990.04
2017,01,18,02,11,990.01
2017,01,18,02,12,989.91
2017,01,18,02,13,989.91
2017,01,18,02,14,989.91
2017,01,18,02,15,989.91
2017,01,18,02,16,989.91
2017,01,18,02,17,989.88
2017,01,18,02,18,989.91
2017,01,18,02,19,989.98
2017,01,18,02,20,989.98
2017,01,18,02,21,990.04
2017,01,18,02,22,989.98
2017,01,18,02,23,990.04
2017,01,18,02,24,990.04
2017,01,18,02,25,990.08
2017,01,18,02,26,990.01
2017,01,18,02,27,990.04
2017,01,18,02,28,989.98
2017,01,18,02,29,990.01
2017,01,18,02,30,990.08
2017,01,18,02,31,990.04
2017,01,18,02,32,990.04
2017,01,18,02,33,990.04
2017,01,18,02,34,990.04
2017,01,18,02,35,990.08
2017,01,18,02,36,990.08
2017,01,18,02,37,990.01
2017,01,18,02,38,989.91
2017,01,18,02,39,989.98
2017,01,18,02,40,989.98
2017,01,18,02,41,990.04
2017,01,18,02,42,989.98
2017,01,18,02,43,989.91
2017,01,18,02,44,989.91
2017,01,18,02,45,989.88
2017,01,18,02,46,989.91
2017,01,18,02,47,989.94
2017,01,18,02,48,989.91
2017,01,18,02,49,989.94
2017,01,18,02,50,989.91
2017,01,18,02,51,989.94
2017,01,18,02,52,989.91
2017,01,18,02,53,989.94
2017,01,18,02,54,989.91
2017,01,18,02,55,989.84
2017,01,18,02,56,989.84
2017,01,18,02,57,989.88
2017,01,18,02,58,989.77
2017,01,18,02,59,989.81
2017,01,18,03,00,989.81
2017,01,18,03,01,989.84
2017,01,18,03,02,989.77
2017,01,18,03,03,989.74
2017,01,18,03,04,989.84
2017,01,18,03,05,989.81
2017,01,18,03,06,989.81
2017,01,18,03,07,989.77
2017,01,18,03,08,989.77
2017,01,18,03,09,989.74
2017,01,18,03,10,989.77
2017,01,18,03,11,989.74
2017,01,18,03,12,989.77
2017,01,18,03,13,989.71
2017,01,18,03,14,989.71
2017,01,18,03,15,989.71
2017,01,18,03,16,989.74
2017,01,18,03,17,989.74
2017,01,18,03,18,989.67
2017,01,18,03,19,989.67
2017,01,18,03,20,989.67
2017,01,18,03,21,989.67
2017,01,18,03,22,989.67
2017,01,18,03,23,989.64
2017,01,18,03,24,989.64
2017,01,18,03,25,989.57
2017,01,18,03,26,989.54
2017,01,18,03,27,989.57
2017,01,18,03,28,989.57
2017,01,18,03,29,989.54
2017,01,18,03,30,989.50
2017,01,18,03,31,989.54
2017,01,18,03,32,989.50
2017,01,18,03,33,989.47
2017,01,18,03,34,989.47
2017,01,18,03,35,989.44
2017,01,18,03,36,989.44
2017,01,18,03,37,989.47
2017,01,18,03,38,989.47
2017,01,18,03,39,989.57
2017,01,18,03,40,989.54
2017,01,18,03,41,989.57
2017,01,18,03,42,989.50
2017,01,18,03,43,989.47
2017,01,18,03,44,989.47
2017,01,18,03,45,989.40
2017,01,18,03,46,989.40
2017,01,18,03,47,989.40
2017,01,18,03,48,989.40
2017,01,18,03,49,989.33
2017,01,18,03,50,989.27
2017,01,18,03,51,989.23
2017,01,18,03,52,989.33
2017,01,18,03,53,989.37
2017,01,18,03,54,989.40
2017,01,18,03,55,989.40
2017,01,18,03,56,989.44
2017,01,18,03,57,989.40
2017,01,18,03,58,989.33
2017,01,18,03,59,989.30
2017,01,18,04,00,989.27
2017,01,18,04,01,989.33
2017,01,18,04,02,989.37
2017,01,18,04,03,989.33
2017,01,18,04,04,989.33
2017,01,18,04,05,989.37
2017,01,18,04,06,989.33
2017,01,18,04,07,989.37
2017,01,18,04,08,989.37
2017,01,18,04,09,989.40
2017,01,18,04,10,989.40
2017,01,18,04,11,989.37
2017,01,18,04,12,989.33
2017,01,18,04,13,989.33
2017,01,18,04,14,989.33
2017,01,18,04,15,989.33
2017,01,18,04,16,989.33
2017,01,18,04,17,989.33
2017,01,18,04,18,989.30
2017,01,18,04,19,989.27
2017,01,18,04,20,989.30
2017,01,18,04,21,989.27
2017,01,18,04,22,989.23
2017,01,18,04,23,989.16
2017,01,18,04,24,989.16
2017,01,18,04,25,989.13
2017,01,18,04,26,989.20
2017,01,18,04,27,989.20
2017,01,18,04,28,989.10
2017,01,18,04,29,989.10
2017,01,18,04,30,989.06
2017,01,18,04,31,989.06
2017,01,18,04,32,989.13
2017,01,18,04,33,989.10
2017,01,18,04,34,989.13
2017,01,18,04,35,989.06
2017,01,18,04,36,989.00
2017,01,18,04,37,989.06
2017,01,18,04,38,989.00
2017,01,18,04,39,988.96
2017,01,18,04,40,989.00
2017,01,18,04,41,989.00
2017,01,18,04,42,989.03
2017,01,18,04,43,988.96
2017,01,18,04,44,989.06
2017,01,18,04,45,989.03
2017,01,18,04,46,988.96
2017,01,18,04,47,988.93
2017,01,18,04,48,988.96
2017,01,18,04,49,988.93
2017,01,18,04,50,988.89
2017,01,18,04,51,988.89
2017,01,18,04,52,988.93
2017,01,18,04,53,988.89
2017,01,18,04,54,988.96
2017,01,18,04,55,989.03
2017,01,18,04,56,988.93
2017,01,18,04,57,989.00
2017,01,18,04,58,988.96
2017,01,18,04,59,988.96
2017,01,18,05,00,988.89
2017,01,18,05,01,988.96
2017,01,18,05,02,989.03
2017,01,18,05,03,988.96
2017,01,18,05,04,989.00
2017,01,18,05,05,988.93
2017,01,18,05,06,988.93
2017,01,18,05,07,988.96
2017,01,18,05,08,988.89
2017,01,18,05,09,988.89
2017,01,18,05,10,988.83
2017,01,18,05,11,988.79
2017,01,18,05,12,988.83
2017,01,18,05,13,988.76
2017,01,18,05,14,988.83
2017,01,18,05,15,988.79
2017,01,18,05,16,988.76
2017,01,18,05,17,988.76
2017,01,18,05,18,988.79
2017,01,18,05,19,988.79
2017,01,18,05,20,988.79
2017,01,18,05,21,988.79
2017,01,18,05,22,988.76
2017,01,18,05,23,988.76
2017,01,18,05,24,988.79
2017,01,18,05,25,988.76
2017,01,18,05,26,988.83
2017,01,18,05,27,988.79
2017,01,18,05,28,988.76
2017,01,18,05,29,988.79
2017,01,18,05,30,988.79
2017,01,18,05,31,988.79
2017,01,18,05,32,988.79
2017,01,18,05,33,988.79
2017,01,18,05,34,988.79
2017,01,18,05,35,988.79
2017,01,18,05,36,988.83
2017,01,18,05,37,988.86
2017,01,18,05,38,988.83
2017,01,18,05,39,988.83
2017,01,18,05,40,988.79
2017,01,18,05,41,988.76
2017,01,18,05,42,988.83
2017,01,18,05,43,988.72
2017,01,18,05,44,988.72
2017,01,18,05,45,988.69
2017,01,18,05,46,988.72
2017,01,18,05,47,988.69
2017,01,18,05,48,988.69
2017,01,18,05,49,988.69
2017,01,18,05,50,988.69
2017,01,18,05,51,988.66
2017,01,18,05,52,988.59
2017,01,18,05,53,988.59
2017,01,18,05,54,988.55
2017,01,18,05,55,988.52
2017,01,18,05,56,988.45
2017,01,18,05,57,988.49
2017,01,18,05,58,988.42
2017,01,18,05,59,988.42
2017,01,18,06,00,988.49
2017,01,18,06,01,988.55
2017,01,18,06,02,988.55
2017,01,18,06,03,988.55
2017,01,18,06,04,988.52
2017,01,18,06,05,988.59
2017,01,18,06,06,988.49
2017,01,18,06,07,988.52
2017,01,18,06,08,988.52
2017,01,18,06,09,988.45
2017,01,18,06,10,988.42
2017,01,18,06,11,988.35
2017,01,18,06,12,988.35
2017,01,18,06,13,988.35
2017,01,18,06,14,988.39
2017,01,18,06,15,988.39
2017,01,18,06,16,988.39
2017,01,18,06,17,988.35
2017,01,18,06,18,988.32
2017,01,18,06,19,988.28
2017,01,18,06,20,988.32
2017,01,18,06,21,988.32
2017,01,18,06,22,988.28
2017,01,18,06,23,988.39
2017,01,18,06,24,988.32
2017,01,18,06,25,988.28
2017,01,18,06,26,988.28
2017,01,18,06,27,988.25
2017,01,18,06,28,988.25
2017,01,18,06,29,988.22
2017,01,18,06,30,988.18
2017,01,18,06,31,988.15
2017,01,18,06,32,988.08
2017,01,18,06,33,988.15
2017,01,18,06,34,988.11
2017,01,18,06,35,988.15
2017,01,18,06,36,988.08
2017,01,18,06,37,988.15
2017,01,18,06,38,988.18
2017,01,18,06,39,988.18
2017,01,18,06,40,988.08
2017,01,18,06,41,988.08
2017,01,18,06,42,988.11
2017,01,18,06,43,988.15
2017,01,18,06,44,988.05
2017,01,18,06,45,988.05
2017,01,18,06,46,987.95
2017,01,18,06,47,988.01
2017,01,18,06,48,988.05
2017,01,18,06,49,987.98
2017,01,18,06,50,987.95
2017,01,18,06,51,987.91
2017,01,18,06,52,987.81
2017,01,18,06,53,987.88
2017,01,18,06,54,987.78
2017,01,18,06,55,987.71
2017,01,18,06,56,987.57
2017,01,18,06,57,987.61
2017,01,18,06,58,987.54
2017,01,18,06,59,987.54
2017,01,18,07,00,987.54
2017,01,18,07,01,987.57
2017,01,18,07,02,987.51
2017,01,18,07,03,987.47
2017,01,18,07,04,987.50
2017,01,18,07,05,987.37
2017,01,18,07,06,987.30
2017,01,18,07,07,987.27
2017,01,18,07,08,987.34
2017,01,18,07,09,987.34
2017,01,18,07,10,987.44
2017,01,18,07,11,987.51
2017,01,18,07,12,987.47
2017,01,18,07,13,987.44
2017,01,18,07,14,987.47
2017,01,18,07,15,987.44
2017,01,18,07,16,987.51
2017,01,18,07,17,987.44
2017,01,18,07,18,987.37
2017,01,18,07,19,987.37
2017,01,18,07,20,987.34
2017,01,18,07,21,987.30
2017,01,18,07,22,987.27
2017,01,18,07,23,987.20
2017,01,18,07,24,987.23
2017,01,18,07,25,987.20
2017,01,18,07,26,987.27
2017,01,18,07,27,987.27
2017,01,18,07,28,987.23
2017,01,18,07,29,987.20
2017,01,18,07,30,987.17
2017,01,18,07,31,987.17
2017,01,18,07,32,987.17
2017,01,18,07,33,987.13
2017,01,18,07,34,987.13
2017,01,18,07,35,987.10
2017,01,18,07,36,987.10
2017,01,18,07,37,987.10
2017,01,18,07,38,987.06
2017,01,18,07,39,987.06
2017,01,18,07,40,987.00
2017,01,18,07,41,986.96
2017,01,18,07,42,987.00
2017,01,18,07,43,986.96
2017,01,18,07,44,986.96
2017,01,18,07,45,986.96
2017,01,18,07,46,986.96
2017,01,18,07,47,986.96
2017,01,18,07,48,986.90
2017,01,18,07,49,986.86
2017,01,18,07,50,986.86
2017,01,18,07,51,986.83
2017,01,18,07,52,986.83
2017,01,18,07,53,986.79
2017,01,18,07,54,986.76
2017,01,18,07,55,986.79
2017,01,18,07,56,986.76
2017,01,18,07,57,986.79
2017,01,18,07,58,986.73
2017,01,18,07,59,986.76
2017,01,18,08,00,986.76
2017,01,18,08,01,986.69
2017,01,18,08,02,986.76
2017,01,18,08,03,986.73
2017,01,18,08,04,986.69
2017,01,18,08,05,986.73
2017,01,18,08,06,986.73
2017,01,18,08,07,986.69
2017,01,18,08,08,986.66
2017,01,18,08,09,986.66
2017,01,18,08,10,986.62
2017,01,18,08,11,986.56
2017,01,18,08,12,986.59
2017,01,18,08,13,986.62
2017,01,18,08,14,986.62
2017,01,18,08,15,986.62
2017,01,18,08,16,986.59
2017,01,18,08,17,986.52
2017,01,18,08,18,986.56
2017,01,18,08,19,986.49
2017,01,18,08,20,986.49
2017,01,18,08,21,986.49
2017,01,18,08,22,986.49
2017,01,18,08,23,986.42
2017,01,18,08,24,986.39
2017,01,18,08,25,986.39
2017,01,18,08,26,986.48
2017,01,18,08,27,986.35
2017,01,18,08,28,986.39
2017,01,18,08,29,986.25
2017,01,18,08,30,986.32
2017,01,18,08,31,986.32
2017,01,18,08,32,986.29
2017,01,18,08,33,986.25
2017,01,18,08,34,986.22
2017,01,18,08,35,986.29
2017,01,18,08,36,986.22
2017,01,18,08,37,986.18
2017,01,18,08,38,986.25
2017,01,18,08,39,986.12
2017,01,18,08,40,986.15
2017,01,18,08,41,986.12
2017,01,18,08,42,986.12
2017,01,18,08,43,986.05
2017,01,18,08,44,986.05
2017,01,18,08,45,986.08
2017,01,18,08,46,985.95
2017,01,18,08,47,986.05
2017,01,18,08,48,985.98
2017,01,18,08,49,985.91
2017,01,18,08,50,985.95
2017,01,18,08,51,985.88
2017,01,18,08,52,985.91
2017,01,18,08,53,985.88
2017,01,18,08,54,985.88
2017,01,18,08,55,985.88
2017,01,18,08,56,985.88
2017,01,18,08,57,985.85
2017,01,18,08,58,985.85
2017,01,18,08,59,985.88
2017,01,18,09,00,985.88
2017,01,18,09,01,985.85
2017,01,18,09,02,985.81
2017,01,18,09,03,985.78
2017,01,18,09,04,985.85
2017,01,18,09,05,985.85
2017,01,18,09,06,985.81
2017,01,18,09,07,985.71
2017,01,18,09,08,985.78
2017,01,18,09,09,985.78
2017,01,18,09,10,985.71
2017,01,18,09,11,985.61
2017,01,18,09,12,985.68
2017,01,18,09,13,985.64
2017,01,18,09,14,985.64
2017,01,18,09,15,985.61
2017,01,18,09,16,985.57
2017,01,18,09,17,985.64
2017,01,18,09,18,985.68
2017,01,18,09,19,985.68
2017,01,18,09,20,985.71
2017,01,18,09,21,985.64
2017,01,18,09,22,985.64
2017,01,18,09,23,985.64
2017,01,18,09,24,985.61
2017,01,18,09,25,985.57
2017,01,18,09,26,985.61
2017,01,18,09,27,985.41
2017,01,18,09,28,985.30
2017,01,18,09,29,985.34
2017,01,18,09,30,985.34
2017,01,18,09,31,985.27
2017,01,18,09,32,985.20
2017,01,18,09,33,985.20
2017,01,18,09,34,985.27
2017,01,18,09,35,985.13
2017,01,18,09,36,985.20
2017,01,18,09,37,985.17
2017,01,18,09,38,985.13
2017,01,18,09,39,985.13
2017,01,18,09,40,985.13
2017,01,18,09,41,985.10
2017,01,18,09,42,985.17
2017,01,18,09,43,985.10
2017,01,18,09,44,985.13
2017,01,18,09,45,985.13
2017,01,18,09,46,985.13
2017,01,18,09,47,985.10
2017,01,18,09,48,985.07
2017,01,18,09,49,985.03
2017,01,18,09,50,985.03
2017,01,18,09,51,985.03
2017,01,18,09,52,985.03
2017,01,18,09,53,985.03
2017,01,18,09,54,985.03
2017,01,18,09,55,985.03
2017,01,18,09,56,985.10
2017,01,18,09,57,985.03
2017,01,18,09,58,985.03
2017,01,18,09,59,985.00
2017,01,18,10,00,984.97
2017,01,18,10,01,984.90
2017,01,18,10,02,984.86
2017,01,18,10,03,984.76
2017,01,18,10,04,984.66
2017,01,18,10,05,984.66
2017,01,18,10,06,984.53
2017,01,18,10,07,984.56
2017,01,18,10,08,984.56
2017,01,18,10,09,984.46
2017,01,18,10,10,984.39
2017,01,18,10,11,984.36
2017,01,18,10,12,984.29
2017,01,18,10,13,984.32
2017,01,18,10,14,984.25
2017,01,18,10,15,984.36
2017,01,18,10,16,984.46
2017,01,18,10,17,984.39
2017,01,18,10,18,984.36
2017,01,18,10,19,984.36
2017,01,18,10,20,984.42
2017,01,18,10,21,984.46
2017,01,18,10,22,984.36
2017,01,18,10,23,984.32
2017,01,18,10,24,984.25
2017,01,18,10,25,984.26
2017,01,18,10,26,984.39
2017,01,18,10,27,984.42
2017,01,18,10,28,984.49
2017,01,18,10,29,984.53
2017,01,18,10,30,984.53
2017,01,18,10,31,984.59
2017,01,18,10,32,984.59
2017,01,18,10,33,984.59
2017,01,18,10,34,984.59
2017,01,18,10,35,984.63
2017,01,18,10,36,984.66
2017,01,18,10,37,984.73
2017,01,18,10,38,984.73
2017,01,18,10,39,984.76
2017,01,18,10,40,984.76
2017,01,18,10,41,984.80
2017,01,18,10,42,984.83
2017,01,18,10,43,984.80
2017,01,18,10,44,984.80
2017,01,18,10,45,984.73
2017,01,18,10,46,984.73
2017,01,18,10,47,984.73
2017,01,18,10,48,984.76
2017,01,18,10,49,984.69
2017,01,18,10,50,984.69
2017,01,18,10,51,984.69
2017,01,18,10,52,984.63
2017,01,18,10,53,984.69
2017,01,18,10,54,984.66
2017,01,18,10,55,984.66
2017,01,18,10,56,984.66
2017,01,18,10,57,984.59
2017,01,18,10,58,984.59
2017,01,18,10,59,984.66
2017,01,18,11,00,984.66
2017,01,18,11,01,984.59
2017,01,18,11,02,984.66
2017,01,18,11,03,984.53
2017,01,18,11,04,984.59
2017,01,18,11,05,984.56
2017,01,18,11,06,984.63
2017,01,18,11,07,984.53
2017,01,18,11,08,984.49
2017,01,18,11,09,984.46
2017,01,18,11,10,984.42
2017,01,18,11,11,984.39
2017,01,18,11,12,984.42
2017,01,18,11,13,984.36
2017,01,18,11,14,984.39
2017,01,18,11,15,984.46
2017,01,18,11,16,984.53
2017,01,18,11,17,984.39
2017,01,18,11,18,984.53
2017,01,18,11,19,984.46
2017,01,18,11,20,984.42
2017,01,18,11,21,984.46
2017,01,18,11,22,984.53
2017,01,18,11,23,984.42
2017,01,18,11,24,984.49
2017,01,18,11,25,984.46
2017,01,18,11,26,984.46
2017,01,18,11,27,984.39
2017,01,18,11,28,984.29
2017,01,18,11,29,984.29
2017,01,18,11,30,984.42
2017,01,18,11,31,984.36
2017,01,18,11,32,984.36
2017,01,18,11,33,984.36
2017,01,18,11,34,984.42
2017,01,18,11,35,984.36
2017,01,18,11,36,984.49
2017,01,18,11,37,984.46
2017,01,18,11,38,984.42
2017,01,18,11,39,984.46
2017,01,18,11,40,984.49
2017,01,18,11,41,984.42
2017,01,18,11,42,984.46
2017,01,18,11,43,984.53
2017,01,18,11,44,984.49
2017,01,18,11,45,984.39
2017,01,18,11,46,984.49
2017,01,18,11,47,984.49
2017,01,18,11,48,984.39
2017,01,18,11,49,984.46
2017,01,18,11,50,984.46
2017,01,18,11,51,984.49
2017,01,18,11,52,984.39
2017,01,18,11,53,984.53
2017,01,18,11,54,984.53
2017,01,18,11,55,984.63
2017,01,18,11,56,984.53
2017,01,18,11,57,984.53
2017,01,18,11,58,984.56
2017,01,18,11,59,984.53
2017,01,18,12,00,984.53
2017,01,18,12,01,984.56
2017,01,18,12,02,984.63
2017,01,18,12,03,984.56
2017,01,18,12,04,984.59
2017,01,18,12,05,984.63
2017,01,18,12,06,984.63
2017,01,18,12,07,984.54
2017,01,18,12,08,984.69
2017,01,18,12,09,984.69
2017,01,18,12,10,984.73
2017,01,18,12,11,984.73
2017,01,18,12,12,984.69
2017,01,18,12,13,984.63
2017,01,18,12,14,984.73
2017,01,18,12,15,984.76
2017,01,18,12,16,984.73
2017,01,18,12,17,984.69
2017,01,18,12,18,984.76
2017,01,18,12,19,984.80
2017,01,18,12,20,984.83
2017,01,18,12,21,984.93
2017,01,18,12,22,984.83
2017,01,18,12,23,984.83
2017,01,18,12,24,984.90
2017,01,18,12,25,984.90
2017,01,18,12,26,984.83
2017,01,18,12,27,984.86
2017,01,18,12,28,984.86
2017,01,18,12,29,984.90
2017,01,18,12,30,984.93
2017,01,18,12,31,984.93
2017,01,18,12,32,985.03
2017,01,18,12,33,984.97
2017,01,18,12,34,985.07
2017,01,18,12,35,985.03
2017,01,18,12,36,985.00
2017,01,18,12,37,985.10
2017,01,18,12,38,985.10
2017,01,18,12,39,985.07
2017,01,18,12,40,985.10
2017,01,18,12,41,985.07
2017,01,18,12,42,985.00
2017,01,18,12,43,985.00
2017,01,18,12,44,985.03
2017,01,18,12,45,985.07
2017,01,18,12,46,985.03
2017,01,18,12,47,985.03
2017,01,18,12,48,985.07
2017,01,18,12,49,985.13
2017,01,18,12,50,985.17
2017,01,18,12,51,985.17
2017,01,18,12,52,985.17
2017,01,18,12,53,985.27
2017,01,18,12,54,985.24
2017,01,18,12,55,985.27
2017,01,18,12,56,985.27
2017,01,18,12,57,985.20
2017,01,18,12,58,985.20
2017,01,18,12,59,985.27
2017,01,18,13,00,985.24
2017,01,18,13,01,985.30
2017,01,18,13,02,985.24
2017,01,18,13,03,985.27
2017,01,18,13,04,985.20
2017,01,18,13,05,985.21
2017,01,18,13,06,985.34
2017,01,18,13,07,985.44
2017,01,18,13,08,985.44
2017,01,18,13,09,985.37
2017,01,18,13,10,985.54
2017,01,18,13,11,985.57
2017,01,18,13,12,985.54
2017,01,18,13,13,985.61
2017,01,18,13,14,985.64
2017,01,18,13,15,985.61
2017,01,18,13,16,985.64
2017,01,18,13,17,985.71
2017,01,18,13,18,985.71
2017,01,18,13,19,985.64
2017,01,18,13,20,985.61
2017,01,18,13,21,985.64
2017,01,18,13,22,985.64
2017,01,18,13,23,985.64
2017,01,18,13,24,985.61
2017,01,18,13,25,985.68
2017,01,18,13,26,985.68
2017,01,18,13,27,985.68
2017,01,18,13,28,985.68
2017,01,18,13,29,985.68
2017,01,18,13,30,985.78
2017,01,18,13,31,985.78
2017,01,18,13,32,985.74
2017,01,18,13,33,985.81
2017,01,18,13,34,985.85
2017,01,18,13,35,985.88
2017,01,18,13,36,985.95
2017,01,18,13,37,986.02
2017,01,18,13,38,986.02
2017,01,18,13,39,986.02
2017,01,18,13,40,986.08
2017,01,18,13,41,986.18
2017,01,18,13,42,986.15
2017,01,18,13,43,986.15
2017,01,18,13,44,986.15
2017,01,18,13,45,986.15
2017,01,18,13,46,986.25
2017,01,18,13,47,986.29
2017,01,18,13,48,986.22
2017,01,18,13,49,986.18
2017,01,18,13,50,986.22
2017,01,18,13,51,986.22
2017,01,18,13,52,986.18
2017,01,18,13,53,986.18
2017,01,18,13,54,986.22
2017,01,18,13,55,986.18
2017,01,18,13,56,986.12
2017,01,18,13,57,986.22
2017,01,18,13,58,986.18
2017,01,18,13,59,986.18
2017,01,18,14,00,986.12
2017,01,18,14,01,986.02
2017,01,18,14,02,986.08
2017,01,18,14,03,986.15
2017,01,18,14,04,986.12
2017,01,18,14,05,986.02
2017,01,18,14,06,986.08
2017,01,18,14,07,986.15
2017,01,18,14,08,986.15
2017,01,18,14,09,986.15
2017,01,18,14,10,986.18
2017,01,18,14,11,986.18
2017,01,18,14,12,986.12
2017,01,18,14,13,986.22
2017,01,18,14,14,986.18
2017,01,18,14,15,986.18
2017,01,18,14,16,986.18
2017,01,18,14,17,986.15
2017,01,18,14,18,986.22
2017,01,18,14,19,986.15
2017,01,18,14,20,986.18
2017,01,18,14,21,986.18
2017,01,18,14,22,986.22
2017,01,18,14,23,986.22
2017,01,18,14,24,986.22
2017,01,18,14,25,986.18
2017,01,18,14,26,986.18
2017,01,18,14,27,986.25
2017,01,18,14,28,986.29
2017,01,18,14,29,986.39
2017,01,18,14,30,986.39
2017,01,18,14,31,986.42
2017,01,18,14,32,986.42
2017,01,18,14,33,986.46
2017,01,18,14,34,986.42
2017,01,18,14,35,986.42
2017,01,18,14,36,986.46
2017,01,18,14,37,986.49
2017,01,18,14,38,986.52
2017,01,18,14,39,986.56
2017,01,18,14,40,986.49
2017,01,18,14,41,986.56
2017,01,18,14,42,986.59
2017,01,18,14,43,986.56
2017,01,18,14,44,986.59
2017,01,18,14,45,986.59
2017,01,18,14,46,986.66
2017,01,18,14,47,986.59
2017,01,18,14,48,986.56
2017,01,18,14,49,986.59
2017,01,18,14,50,986.59
2017,01,18,14,51,986.56
2017,01,18,14,52,986.59
2017,01,18,14,53,986.73
2017,01,18,14,54,986.59
2017,01,18,14,55,986.66
2017,01,18,14,56,986.62
2017,01,18,14,57,986.62
2017,01,18,14,58,986.66
2017,01,18,14,59,986.59
2017,01,18,15,00,986.62
2017,01,18,15,01,986.69
2017,01,18,15,02,986.62
2017,01,18,15,03,986.66
2017,01,18,15,04,986.62
2017,01,18,15,05,986.69
2017,01,18,15,06,986.76
2017,01,18,15,07,986.76
2017,01,18,15,08,986.79
2017,01,18,15,09,986.76
2017,01,18,15,10,986.79
2017,01,18,15,11,986.73
2017,01,18,15,12,986.69
2017,01,18,15,13,986.66
2017,01,18,15,14,986.73
2017,01,18,15,15,986.69
2017,01,18,15,16,986.62
2017,01,18,15,17,986.62
2017,01,18,15,18,986.66
2017,01,18,15,19,986.66
2017,01,18,15,20,986.73
2017,01,18,15,21,986.76
2017,01,18,15,22,986.79
2017,01,18,15,23,986.83
2017,01,18,15,24,986.86
2017,01,18,15,25,986.90
2017,01,18,15,26,987.00
2017,01,18,15,27,987.06
2017,01,18,15,28,987.10
2017,01,18,15,29,987.10
2017,01,18,15,30,987.10
2017,01,18,15,31,987.20
2017,01,18,15,32,987.23
2017,01,18,15,33,987.30
2017,01,18,15,34,987.34
2017,01,18,15,35,987.37
2017,01,18,15,36,987.34
2017,01,18,15,37,987.34
2017,01,18,15,38,987.17
2017,01,18,15,39,987.20
2017,01,18,15,40,987.13
2017,01,18,15,41,987.17
2017,01,18,15,42,987.13
2017,01,18,15,43,987.17
2017,01,18,15,44,987.20
2017,01,18,15,45,987.27
2017,01,18,15,46,987.23
2017,01,18,15,47,987.20
2017,01,18,15,48,987.23
2017,01,18,15,49,987.27
2017,01,18,15,50,987.23
2017,01,18,15,51,987.27
2017,01,18,15,52,987.37
2017,01,18,15,53,987.37
2017,01,18,15,54,987.34
2017,01,18,15,55,987.37
2017,01,18,15,56,987.40
2017,01,18,15,57,987.37
2017,01,18,15,58,987.37
2017,01,18,15,59,987.44
2017,01,18,16,00,987.47
2017,01,18,16,01,987.44
2017,01,18,16,02,987.44
2017,01,18,16,03,987.40
2017,01,18,16,04,987.44
2017,01,18,16,05,987.37
2017,01,18,16,06,987.37
2017,01,18,16,07,987.40
2017,01,18,16,08,987.37
2017,01,18,16,09,987.40
2017,01,18,16,10,987.44
2017,01,18,16,11,987.47
2017,01,18,16,12,987.47
2017,01,18,16,13,987.47
2017,01,18,16,14,987.40
2017,01,18,16,15,987.47
2017,01,18,16,16,987.44
2017,01,18,16,17,987.44
2017,01,18,16,18,987.40
2017,01,18,16,19,987.34
2017,01,18,16,20,987.34
2017,01,18,16,21,987.27
2017,01,18,16,22,987.27
2017,01,18,16,23,987.27
2017,01,18,16,24,987.27
2017,01,18,16,25,987.27
2017,01,18,16,26,987.27
2017,01,18,16,27,987.30
2017,01,18,16,28,987.34
2017,01,18,16,29,987.34
2017,01,18,16,30,987.27
2017,01,18,16,31,987.27
2017,01,18,16,32,987.27
2017,01,18,16,33,987.20
2017,01,18,16,34,987.17
2017,01,18,16,35,987.13
2017,01,18,16,36,987.10